Millington, TN

8:25 PM CDT on September 26, 2016 (GMT -0500)
Millington Municipal

Weather History for KNQA - July, 2013

Change the Weather History Date:

Saturday, July 6, 2013

  Actual Average Record
Temperature  
Mean Temperature 76 °F -  
Max Temperature 87 °F 90 °F 104 °F (2012)
Min Temperature 64 °F 72 °F 60 °F (2014)
Cooling Degree Days 10    
Growing Degree Days 26 (Base 50)    
Moisture  
Dew Point 69 °F    
Average Humidity 83    
Maximum Humidity 100    
Minimum Humidity 55    
Precipitation  
Precipitation 0.00 in - - ()
Sea Level Pressure  
Sea Level Pressure 30.03 in    
Wind  
Wind Speed 1 mph (SE)    
Max Wind Speed 6 mph    
Max Gust Speed -    
Visibility 10 miles    
Events      
Averages and records for this station are not official NWS values.
T = Trace of Precipitation, MM = Missing Value Source: NWS Daily Summary

Daily Weather History Graph

Daily Weather History Graph

Search for Another Location

Airport or City:

Trip Planner

Search our weather history database for the weather conditions in past years. The results will help you decide how hot, cold, wet, or windy it might be!

Date:

Astronomy

Jul. 06, 2013 Rise Set
Actual Time 5:50 AM CDT 8:17 PM CDT
Civil Twilight 5:21 AM CDT 8:47 PM CDT
Nautical Twilight 4:44 AM CDT 9:23 PM CDT
Astronomical Twilight 4:04 AM CDT 10:03 PM CDT
Moon 4:34 AM CDT (7/6) 7:01 PM CDT (7/6)
Length of Visible Light 15h 26m
Length of Day
14h 26m
Waning Crescent, 2% of the Moon is Illuminated
Jul 6
Waning Crescent
Jul 8
New
Jul 15
First Quarter
Jul 22
Full
Jul 29
Last Quarter

Hourly Weather History & Observations

Time (CDT) Temp. Heat Index Dew Point Humidity Pressure Visibility Wind Dir Wind Speed Gust Speed Precip Events Conditions
12:55 AM 66.2 °F - 62.6 °F 88% 30.04 in 10.0 mi Calm Calm - N/A   Clear
1:55 AM 66.2 °F - 62.6 °F 88% 30.03 in 10.0 mi Calm Calm - N/A   Clear
2:55 AM 66.2 °F - 62.6 °F 88% 30.03 in 10.0 mi Calm Calm - N/A   Clear
3:15 AM 66.2 °F - 64.4 °F 94% 30.03 in 10.0 mi Calm Calm - N/A   Clear
3:35 AM 66.2 °F - 64.4 °F 94% 30.03 in 10.0 mi Calm Calm - N/A   Clear
3:55 AM 64.4 °F - 64.4 °F 100% 30.04 in 10.0 mi Calm Calm - N/A   Clear
4:15 AM 66.2 °F - 64.4 °F 94% 30.04 in 10.0 mi Calm Calm - N/A   Scattered Clouds
4:35 AM 66.2 °F - 64.4 °F 94% 30.04 in 10.0 mi Calm Calm - N/A   Overcast
4:55 AM 66.2 °F - 66.2 °F 100% 30.04 in 10.0 mi Calm Calm - N/A   Overcast
5:15 AM 68.0 °F - 66.2 °F 94% 30.05 in 10.0 mi Calm Calm - N/A   Overcast
5:35 AM 68.0 °F - 66.2 °F 94% 30.05 in 10.0 mi Calm Calm - N/A   Mostly Cloudy
5:55 AM 66.2 °F - 66.2 °F 100% 30.06 in 10.0 mi Calm Calm - N/A   Mostly Cloudy
6:55 AM 69.8 °F - 69.8 °F 100% 30.06 in 10.0 mi Calm Calm - N/A   Mostly Cloudy
7:55 AM 73.4 °F - 71.6 °F 94% 30.06 in 10.0 mi Calm Calm - N/A   Mostly Cloudy
8:55 AM 77.0 °F - 71.6 °F 83% 30.06 in 10.0 mi SE 4.6 mph - N/A   Mostly Cloudy
9:55 AM 80.6 °F 84.6 °F 71.6 °F 74% 30.07 in 10.0 mi Calm Calm - N/A   Mostly Cloudy
10:55 AM 82.4 °F 87.2 °F 71.6 °F 70% 30.07 in 10.0 mi SSE 3.5 mph - N/A   Mostly Cloudy
11:55 AM 82.4 °F 87.2 °F 71.6 °F 70% 30.06 in 10.0 mi Calm Calm - N/A   Mostly Cloudy
12:55 PM 84.2 °F 89.6 °F 71.6 °F 66% 30.05 in 10.0 mi SE 4.6 mph - N/A   Mostly Cloudy
1:55 PM 84.2 °F 89.6 °F 71.6 °F 66% 30.03 in 10.0 mi ESE 4.6 mph - N/A   Mostly Cloudy
2:55 PM 87.8 °F 93.8 °F 71.6 °F 58% 30.01 in 10.0 mi Variable 3.5 mph - N/A   Mostly Cloudy
3:55 PM 87.8 °F 93.8 °F 71.6 °F 58% 29.99 in 10.0 mi Variable 3.5 mph - N/A   Scattered Clouds
4:55 PM 87.8 °F 92.6 °F 69.8 °F 55% 29.98 in 10.0 mi Calm Calm - N/A   Scattered Clouds
5:55 PM 87.8 °F 92.6 °F 69.8 °F 55% 29.97 in 10.0 mi Calm Calm - N/A   Mostly Cloudy
6:55 PM 87.8 °F 92.6 °F 69.8 °F 55% 29.98 in 10.0 mi SSE 4.6 mph - N/A   Mostly Cloudy
7:55 PM 82.4 °F 87.2 °F 71.6 °F 70% 29.99 in 10.0 mi SE 4.6 mph - N/A   Mostly Cloudy
8:55 PM 75.2 °F - 73.4 °F 94% 30.02 in 6.0 mi NW 5.8 mph - N/A   Overcast
9:55 PM 75.2 °F - 73.4 °F 94% 30.04 in 10.0 mi North 3.5 mph - N/A   Mostly Cloudy
10:55 PM 73.4 °F - 71.6 °F 94% 30.03 in 10.0 mi Calm Calm - N/A   Scattered Clouds
11:55 PM 71.6 °F - 71.6 °F 100% 30.05 in 10.0 mi Calm Calm - N/A   Clear